FWI420 TFFF-TFFR

Flight info

Callsign FWI420
Flight time 0h 46m
Altitude 12000
Route LIDOS2R LIDOS DCT PPR
Aircraft AT76/M-SDFGIRY/S

Departure

Time 2026-05-08 13:39
Airport Martinique Aimé Césaire International Airport (TFFF)

Arrival

Time 2026-05-08 14:26
Airport Maryse Condé International Airport (TFFR)
Time Latitude Longitude Altitude Speed Heading
2026-05-08 12:55 14.59449 -60.99754 16 ft 0 kts 88°
2026-05-08 13:24 14.59449 -60.99755 16 ft 0 kts 88°
2026-05-08 13:30 14.59441 -60.99745 18 ft 2 kts 159°
2026-05-08 13:31 14.59412 -60.99754 17 ft 8 kts 202°
2026-05-08 13:31 14.59388 -60.99826 17 ft 14 kts 261°
2026-05-08 13:31 14.59368 -60.99942 16 ft 18 kts 260°
2026-05-08 13:31 14.59335 -61.00046 16 ft 12 kts 212°
2026-05-08 13:32 14.59253 -61.00036 16 ft 12 kts 167°
2026-05-08 13:32 14.59164 -61.00040 15 ft 15 kts 221°
2026-05-08 13:32 14.59134 -61.00160 13 ft 20 kts 261°
2026-05-08 13:32 14.59109 -61.00305 13 ft 21 kts 259°
2026-05-08 13:33 14.59084 -61.00456 11 ft 22 kts 261°
2026-05-08 13:33 14.59060 -61.00615 13 ft 22 kts 259°
2026-05-08 13:33 14.59033 -61.00766 21 ft 21 kts 260°
2026-05-08 13:33 14.59007 -61.00914 19 ft 21 kts 260°
2026-05-08 13:34 14.58981 -61.01066 19 ft 21 kts 261°
2026-05-08 13:34 14.58956 -61.01211 22 ft 20 kts 259°
2026-05-08 13:34 14.58932 -61.01360 21 ft 22 kts 259°
2026-05-08 13:34 14.58901 -61.01521 20 ft 24 kts 260°
2026-05-08 13:35 14.58874 -61.01692 16 ft 19 kts 261°
2026-05-08 13:35 14.58844 -61.01801 12 ft 15 kts 234°
2026-05-08 13:35 14.58845 -61.01823 12 ft 0 kts
2026-05-08 13:37 14.58847 -61.01819 12 ft 1 kts 46°
2026-05-08 13:37 14.58849 -61.01813 12 ft 0 kts 69°
2026-05-08 13:38 14.58851 -61.01804 12 ft 1 kts 77°
2026-05-08 13:38 14.58893 -61.01582 17 ft 62 kts 79°
2026-05-08 13:38 14.58996 -61.00961 20 ft 112 kts 80°
2026-05-08 13:38 14.59154 -61.00099 280 ft 129 kts 76°
2026-05-08 13:39 14.59362 -60.99167 561 ft 133 kts 77°
2026-05-08 13:39 14.59531 -60.98229 923 ft 133 kts 78°
2026-05-08 13:39 14.59664 -60.97289 1326 ft 131 kts 77°
2026-05-08 13:39 14.59804 -60.96358 1681 ft 131 kts 79°
2026-05-08 13:40 14.59984 -60.95429 1945 ft 134 kts 78°
2026-05-08 13:40 14.60156 -60.94437 2118 ft 150 kts 78°
2026-05-08 13:40 14.60313 -60.93303 2319 ft 164 kts 80°
2026-05-08 13:40 14.60490 -60.92153 2671 ft 166 kts 80°
2026-05-08 13:41 14.60674 -60.90983 3061 ft 165 kts 79°
2026-05-08 13:41 14.60912 -60.89828 3402 ft 166 kts 65°
2026-05-08 13:41 14.61792 -60.89104 3670 ft 175 kts 13°
2026-05-08 13:41 14.62992 -60.89371 3971 ft 184 kts 334°
2026-05-08 13:42 14.64103 -60.90060 4284 ft 190 kts 326°
2026-05-08 13:42 14.64756 -60.91266 4629 ft 202 kts 279°
2026-05-08 13:42 14.64471 -60.92667 4982 ft 202 kts 235°
2026-05-08 13:42 14.63394 -60.93538 5264 ft 198 kts 193°
2026-05-08 13:43 14.62085 -60.93469 5606 ft 186 kts 148°
2026-05-08 13:43 14.61262 -60.92550 5912 ft 175 kts 104°
2026-05-08 13:43 14.61379 -60.91347 6188 ft 174 kts 58°
2026-05-08 13:43 14.62366 -60.90661 6495 ft 180 kts 12°
2026-05-08 13:44 14.63633 -60.90779 6727 ft 187 kts 354°
2026-05-08 13:44 14.64916 -60.91074 6993 ft 191 kts 349°
2026-05-08 13:44 14.66179 -60.91510 7303 ft 192 kts 345°
2026-05-08 13:44 14.67315 -60.92240 7563 ft 203 kts 311°
2026-05-08 13:45 14.67823 -60.93606 7777 ft 206 kts 287°
2026-05-08 13:45 14.68578 -60.94799 7974 ft 198 kts 332°
2026-05-08 13:45 14.69848 -60.95082 8254 ft 188 kts 13°
2026-05-08 13:45 14.71142 -60.94768 8499 ft 191 kts 17°
2026-05-08 13:46 14.72441 -60.94484 8792 ft 191 kts 14°
2026-05-08 13:46 14.73728 -60.94237 9089 ft 191 kts 12°
2026-05-08 13:46 14.75059 -60.94064 9341 ft 193 kts
2026-05-08 13:46 14.76402 -60.94024 9588 ft 195 kts
2026-05-08 13:47 14.77771 -60.94122 9868 ft 196 kts 357°
2026-05-08 13:47 14.79115 -60.94324 10104 ft 197 kts 353°
2026-05-08 13:47 14.80468 -60.94566 10330 ft 198 kts 352°
2026-05-08 13:47 14.81835 -60.94813 10561 ft 199 kts 352°
2026-05-08 13:48 14.83181 -60.95061 10806 ft 198 kts 352°
2026-05-08 13:48 14.84549 -60.95315 11071 ft 197 kts 352°
2026-05-08 13:48 14.85914 -60.95557 11282 ft 199 kts 352°
2026-05-08 13:48 14.87288 -60.95793 11455 ft 202 kts 352°
2026-05-08 13:49 14.88642 -60.96029 11732 ft 198 kts 352°
2026-05-08 13:49 14.90016 -60.96261 11896 ft 202 kts 352°
2026-05-08 13:49 14.91431 -60.96500 11961 ft 210 kts 352°
2026-05-08 13:49 14.92901 -60.96745 11993 ft 218 kts 352°
2026-05-08 13:50 14.94427 -60.96994 12007 ft 226 kts 352°
2026-05-08 13:50 14.95998 -60.97250 12018 ft 231 kts 352°
2026-05-08 13:50 14.97608 -60.97513 12020 ft 236 kts 352°
2026-05-08 13:50 14.99247 -60.97777 12022 ft 240 kts 352°
2026-05-08 13:51 15.00892 -60.98052 12022 ft 243 kts 352°
2026-05-08 13:51 15.02591 -60.98339 12027 ft 245 kts 352°
2026-05-08 13:51 15.04259 -60.98620 12018 ft 247 kts 351°
2026-05-08 13:51 15.05961 -60.98908 12028 ft 249 kts 352°
2026-05-08 13:52 15.07667 -60.99201 12027 ft 249 kts 351°
2026-05-08 13:52 15.09393 -60.99494 12025 ft 250 kts 352°
2026-05-08 13:52 15.11113 -60.99783 12025 ft 251 kts 352°
2026-05-08 13:52 15.12840 -61.00078 12027 ft 251 kts 351°
2026-05-08 13:53 15.14572 -61.00377 12026 ft 251 kts 352°
2026-05-08 13:53 15.16298 -61.00671 12024 ft 251 kts 351°
2026-05-08 13:53 15.18023 -61.00961 12025 ft 251 kts 352°
2026-05-08 13:53 15.19747 -61.01251 12027 ft 251 kts 351°
2026-05-08 13:54 15.21441 -61.01540 12029 ft 250 kts 351°
2026-05-08 13:54 15.23166 -61.01831 12025 ft 250 kts 351°
2026-05-08 13:54 15.24884 -61.02120 12028 ft 250 kts 352°
2026-05-08 13:54 15.26602 -61.02414 12027 ft 249 kts 351°
2026-05-08 13:55 15.28317 -61.02703 12029 ft 249 kts 352°
2026-05-08 13:55 15.30029 -61.02992 12028 ft 250 kts 352°
2026-05-08 13:55 15.33429 -61.03588 12029 ft 249 kts 352°
2026-05-08 13:56 15.35144 -61.03891 12030 ft 249 kts 351°
2026-05-08 13:56 15.36846 -61.04184 12029 ft 249 kts 352°
2026-05-08 13:56 15.38561 -61.04479 12027 ft 248 kts 352°
2026-05-08 13:56 15.40263 -61.04772 12027 ft 248 kts 352°
2026-05-08 13:57 15.41965 -61.05058 12026 ft 248 kts 352°
2026-05-08 13:57 15.43667 -61.05342 12025 ft 248 kts 352°
2026-05-08 13:57 15.45367 -61.05631 12026 ft 247 kts 352°
2026-05-08 13:57 15.47063 -61.05921 12039 ft 247 kts 351°
2026-05-08 13:58 15.48760 -61.06206 12037 ft 247 kts 352°
2026-05-08 13:58 15.50455 -61.06497 12041 ft 247 kts 352°
2026-05-08 13:58 15.52130 -61.06785 12042 ft 246 kts 352°
2026-05-08 13:58 15.53817 -61.07071 12048 ft 247 kts 352°
2026-05-08 13:59 15.55524 -61.07360 12047 ft 247 kts 352°
2026-05-08 13:59 15.57197 -61.07736 12041 ft 247 kts 339°
2026-05-08 13:59 15.58659 -61.08654 12045 ft 246 kts 327°
2026-05-08 13:59 15.60061 -61.09687 12044 ft 247 kts 326°
2026-05-08 14:00 15.61461 -61.10715 12042 ft 248 kts 327°
2026-05-08 14:00 15.62895 -61.11716 12047 ft 248 kts 329°
2026-05-08 14:00 15.64333 -61.12674 12047 ft 248 kts 330°
2026-05-08 14:00 15.65791 -61.13633 12051 ft 249 kts 330°
2026-05-08 14:01 15.67248 -61.14601 12049 ft 248 kts 329°
2026-05-08 14:01 15.68707 -61.15558 12048 ft 248 kts 330°
2026-05-08 14:01 15.70174 -61.16510 12043 ft 249 kts 329°
2026-05-08 14:01 15.71637 -61.17463 12047 ft 249 kts 330°
2026-05-08 14:02 15.73108 -61.18423 12046 ft 249 kts 330°
2026-05-08 14:02 15.74561 -61.19396 12045 ft 248 kts 330°
2026-05-08 14:02 15.76015 -61.20371 12045 ft 249 kts 329°
2026-05-08 14:02 15.77461 -61.21344 12043 ft 249 kts 329°
2026-05-08 14:03 15.78930 -61.22321 12041 ft 249 kts 330°
2026-05-08 14:03 15.80368 -61.23282 12045 ft 250 kts 329°
2026-05-08 14:03 15.81849 -61.24267 12041 ft 249 kts 330°
2026-05-08 14:03 15.83296 -61.25227 12039 ft 249 kts 329°
2026-05-08 14:04 15.84760 -61.26192 12040 ft 249 kts 329°
2026-05-08 14:04 15.86226 -61.27159 12038 ft 250 kts 329°
2026-05-08 14:04 15.87687 -61.28133 12040 ft 250 kts 330°
2026-05-08 14:04 15.89148 -61.29111 12040 ft 250 kts 329°
2026-05-08 14:05 15.90608 -61.30084 12030 ft 250 kts 330°
2026-05-08 14:05 15.92074 -61.31057 12031 ft 249 kts 329°
2026-05-08 14:05 15.93536 -61.32027 12033 ft 249 kts 329°
2026-05-08 14:05 15.94999 -61.32992 12027 ft 250 kts 329°
2026-05-08 14:06 15.96462 -61.33975 12032 ft 249 kts 329°
2026-05-08 14:06 15.97922 -61.34948 12031 ft 249 kts 329°
2026-05-08 14:06 15.99380 -61.35920 12032 ft 248 kts 329°
2026-05-08 14:06 16.00834 -61.36887 12033 ft 249 kts 328°
2026-05-08 14:07 16.02301 -61.37862 12036 ft 249 kts 329°
2026-05-08 14:07 16.03756 -61.38828 12036 ft 250 kts 330°
2026-05-08 14:07 16.05209 -61.39797 12036 ft 250 kts 329°
2026-05-08 14:07 16.06684 -61.40787 12026 ft 249 kts 329°
2026-05-08 14:08 16.08128 -61.41744 12027 ft 249 kts 329°
2026-05-08 14:08 16.09598 -61.42722 12029 ft 250 kts 329°
2026-05-08 14:08 16.11067 -61.43697 12028 ft 250 kts 329°
2026-05-08 14:08 16.12531 -61.44679 12028 ft 250 kts 329°
2026-05-08 14:09 16.13984 -61.45650 12032 ft 250 kts 329°
2026-05-08 14:09 16.15445 -61.46630 12027 ft 250 kts 329°
2026-05-08 14:09 16.16915 -61.47605 12026 ft 250 kts 329°
2026-05-08 14:09 16.18387 -61.48581 12026 ft 251 kts 329°
2026-05-08 14:10 16.19857 -61.49561 12030 ft 251 kts 329°
2026-05-08 14:10 16.21323 -61.50546 12032 ft 251 kts 329°
2026-05-08 14:10 16.22771 -61.51517 12035 ft 251 kts 329°
2026-05-08 14:10 16.24247 -61.52498 12029 ft 252 kts 329°
2026-05-08 14:11 16.25725 -61.53478 12026 ft 252 kts 329°
2026-05-08 14:11 16.27200 -61.54471 12011 ft 253 kts 326°
2026-05-08 14:11 16.28571 -61.55604 12011 ft 252 kts 322°
2026-05-08 14:11 16.29905 -61.56791 11932 ft 254 kts 322°
2026-05-08 14:12 16.31237 -61.57975 11603 ft 251 kts 323°
2026-05-08 14:12 16.32597 -61.59139 11280 ft 254 kts 323°
2026-05-08 14:12 16.33980 -61.60299 10953 ft 255 kts 324°
2026-05-08 14:12 16.35355 -61.61448 10627 ft 257 kts 324°
2026-05-08 14:13 16.36764 -61.62619 10304 ft 258 kts 325°
2026-05-08 14:13 16.38171 -61.63785 9983 ft 259 kts 323°
2026-05-08 14:13 16.39590 -61.64957 9619 ft 260 kts 325°
2026-05-08 14:13 16.40992 -61.66128 9265 ft 261 kts 324°
2026-05-08 14:14 16.42411 -61.67309 8885 ft 260 kts 325°
2026-05-08 14:14 16.43974 -61.68210 8387 ft 258 kts 349°
2026-05-08 14:14 16.45741 -61.68132 7954 ft 253 kts 16°
2026-05-08 14:14 16.47475 -61.68025 7605 ft 256 kts 351°
2026-05-08 14:15 16.49025 -61.68943 7270 ft 265 kts 317°
2026-05-08 14:15 16.49915 -61.70623 6972 ft 271 kts 285°
2026-05-08 14:15 16.49874 -61.72576 6677 ft 274 kts 255°
2026-05-08 14:15 16.48915 -61.74266 6379 ft 273 kts 223°
2026-05-08 14:16 16.47307 -61.75233 6081 ft 267 kts 192°
2026-05-08 14:16 16.45501 -61.75289 5793 ft 256 kts 169°
2026-05-08 14:16 16.43762 -61.74992 5536 ft 252 kts 165°
2026-05-08 14:16 16.42068 -61.74552 5313 ft 250 kts 161°
2026-05-08 14:17 16.40428 -61.73994 5100 ft 244 kts 159°
2026-05-08 14:17 16.38763 -61.73967 4889 ft 250 kts 193°
2026-05-08 14:17 16.37291 -61.74935 4672 ft 254 kts 225°
2026-05-08 14:17 16.36101 -61.76202 4460 ft 234 kts 216°
2026-05-08 14:18 16.34674 -61.76841 4311 ft 217 kts 188°
2026-05-08 14:18 16.33217 -61.77123 4184 ft 210 kts 185°
2026-05-08 14:18 16.32260 -61.77276 4131 ft 207 kts 183°
2026-05-08 14:18 16.30907 -61.77104 4029 ft 192 kts 147°
2026-05-08 14:19 16.30095 -61.76099 3886 ft 181 kts 103°
2026-05-08 14:19 16.29966 -61.74839 3807 ft 173 kts 88°
2026-05-08 14:19 16.30106 -61.73620 3700 ft 167 kts 76°
2026-05-08 14:19 16.30207 -61.72463 3579 ft 164 kts 102°
2026-05-08 14:20 16.29578 -61.71435 3428 ft 165 kts 123°
2026-05-08 14:20 16.29222 -61.70417 3458 ft 144 kts 97°
2026-05-08 14:20 16.29100 -61.69314 2964 ft 158 kts 92°
2026-05-08 14:20 16.29003 -61.68207 2726 ft 148 kts 92°
2026-05-08 14:21 16.28905 -61.67200 2517 ft 130 kts 92°
2026-05-08 14:21 16.28822 -61.66320 2347 ft 116 kts 91°
2026-05-08 14:21 16.28743 -61.65519 2187 ft 110 kts 91°
2026-05-08 14:21 16.28668 -61.64733 2053 ft 109 kts 92°
2026-05-08 14:22 16.28549 -61.63942 1907 ft 113 kts 97°
2026-05-08 14:22 16.28394 -61.63157 1773 ft 111 kts 99°
2026-05-08 14:22 16.28209 -61.62362 1600 ft 111 kts 97°
2026-05-08 14:22 16.28070 -61.61591 1420 ft 105 kts 96°
2026-05-08 14:23 16.27951 -61.60855 1287 ft 101 kts 97°
2026-05-08 14:23 16.27905 -61.60134 1156 ft 100 kts 83°
2026-05-08 14:23 16.27871 -61.59422 1015 ft 104 kts 97°
2026-05-08 14:23 16.27641 -61.58725 935 ft 102 kts 108°
2026-05-08 14:24 16.27420 -61.58042 805 ft 99 kts 103°
2026-05-08 14:24 16.27271 -61.57362 608 ft 101 kts 98°
2026-05-08 14:24 16.27158 -61.56641 499 ft 98 kts 91°
2026-05-08 14:24 16.27034 -61.55943 399 ft 95 kts 96°
2026-05-08 14:25 16.26907 -61.55266 269 ft 94 kts 95°
2026-05-08 14:25 16.26793 -61.54582 42 ft 97 kts 98°
2026-05-08 14:25 16.26675 -61.53942 16 ft 84 kts 101°
2026-05-08 14:25 16.26573 -61.53416 17 ft 66 kts 101°
2026-05-08 14:26 16.26521 -61.53134 16 ft 19 kts 100°
2026-05-08 14:26 16.26511 -61.53020 16 ft 12 kts 71°
2026-05-08 14:26 16.26561 -61.52987 16 ft 7 kts 22°
2026-05-08 14:26 16.26599 -61.52977 17 ft 5 kts 12°
2026-05-08 14:27 16.26633 -61.52969 17 ft 4 kts 12°
2026-05-08 14:27 16.26659 -61.52964 18 ft 4 kts 10°
2026-05-08 14:27 16.26682 -61.52960 18 ft 3 kts 11°
2026-05-08 14:27 16.26709 -61.52955 18 ft 4 kts 12°
2026-05-08 14:28 16.26739 -61.52949 18 ft 5 kts 12°
2026-05-08 14:28 16.26771 -61.52942 18 ft 5 kts 12°
2026-05-08 14:28 16.26806 -61.52934 18 ft 5 kts 11°
2026-05-08 14:28 16.26842 -61.52928 19 ft 5 kts
2026-05-08 14:29 16.26858 -61.52939 18 ft 3 kts 302°
2026-05-08 14:29 16.26865 -61.52950 19 ft 0 kts 299°
2026-05-08 14:31 16.26877 -61.52985 18 ft 10 kts 294°
2026-05-08 14:31 16.26940 -61.53017 18 ft 11 kts 343°
2026-05-08 14:31 16.26988 -61.53008 18 ft 4 kts 35°
2026-05-08 14:32 16.26989 -61.52999 18 ft 1 kts 109°
2026-05-08 14:32 16.26983 -61.52996 18 ft 0 kts 152°
2026-05-08 15:17 16.26983 -61.52997 45 ft 0 kts 152°
2026-05-08 15:34 16.26983 -61.52996 18 ft 1 kts 153°
2026-05-08 15:34 16.26974 -61.52999 19 ft 3 kts 206°
2026-05-08 15:34 16.26931 -61.53020 18 ft 9 kts 173°